Regional Weather Roundup
Issued by NWS Bismarck, ND

Home | Current Version | Previous Version | Text Only | Print | Product List | Glossary On
Versions: 1 2 3 4 5 6 7 8 9 10 11 12 13 14 15 16 17 18 19 20 21 22 23 24 25 26 27 28 29 30 31 32 33 34 35 36 37 38 39 40 41 42 43 44 45 46 47 48 49 50
048
ASUS43 KBIS 250502
RWRBIS

NWR BROADCAST TEXT
NATIONAL WEATHER SERVICE BISMARCK ND
1200 AM CDT SAT MAR 25 2017

NOTE: "FAIR" INDICATES FEW OR NO CLOUDS BELOW 12,000 FEET WITH NO
SIGNIFICANT WEATHER AND/OR OBSTRUCTIONS TO VISIBILITY.


CITY           SKY/WX    TMP DP  RH WIND       PRES   REMARKS
WILLISTON      FAIR      44  34  67 SE15G24   29.95F
MINOT          CLOUDY    31  29  92 SE14      30.09F
MINOT AFB      FAIR      29  27  92 SE15      30.09F WCI  18
BISMARCK       FAIR      31  28  89 E10       30.14F
DICKINSON      FAIR      37  30  75 SE18      29.99F
GARRISON         N/A     29  28  96 SE9       30.09S
HETTINGER ARPT FAIR      39  31  72 E12       30.04S
JAMESTOWN      CLOUDY    30  27  88 E6        30.19S
HAZEN          FAIR      32  30  93 E9        30.10F
LINTON           N/A     30  30 100 SE9       30.16S
MANDAN         FAIR      30  30 100 E13       30.12S
RUGBY            N/A     27  27 100 SE10      30.16S WCI  17
STANLEY        FAIR      32  32 100 SE10G16   30.05F
TIOGA          FAIR      36  36 100 SE17G24   30.00F
WATFORD CITY   FAIR      43  34  70 SE18      29.96F
$$

CITY           SKY/WX    TMP DP  RH WIND       PRES   REMARKS
GRAND FORKS    FAIR      29  28  96 N6        30.22F
GRAND FORKS AF FAIR      26  26  99 N5        30.23S
DEVILS LAKE    CLOUDY    29  27  92 SE9       30.19F
FARGO          FAIR      29  27  92 N5        30.21S
CAVALIER         N/A     30  27  86 CALM      30.23F
GRAFTON        FAIR      28  28 100 CALM      30.25F
GWINNER        CLEAR     28  28 100 MISG      30.20S
LANGDON        FAIR      27  27 100 SE6       30.19S WCI  20
ROLLA          CLOUDY    27  27 100 SE10      30.16F WCI  17
$$

CITY           SKY/WX    TMP DP  RH WIND       PRES   REMARKS
ABERDEEN       FAIR      26  23  88 NE6       30.21R WCI  19
MOBRIDGE       FAIR      36  29  75 SE12      30.14R
BUFFALO          N/A     43  34  70 SE20      29.91F
RAPID CITY     FAIR      39  29  67 S10       30.07S
GLASGOW        FAIR      52  30  43 SE17      29.77F
SIDNEY         FAIR      49  34  56 SE22G29   29.90F
WOLF POINT     FAIR      52  29  41 SE9G18    29.83F
GLENDIVE       FAIR      50  34  54 S13       29.89F
MILES CITY     FAIR      51  30  44 SE18G24   29.82F
BAKER          FAIR      44  33  65 SE20      29.93F
$$

CITY           SKY/WX    TMP DP  RH WIND       PRES   REMARKS
BILLINGS       CLOUDY    55  30  38 W13       29.81S
GREAT FALLS    MOCLDY    49  31  49 SW21G33   29.80R
$$





USA.gov is the U.S. government's official web portal to all federal, state and local government web resources and services.